| time (UTC) | temp F | wind direction | speed MPH | gust MPH | rain 1hr in | rain 24hr in | rain mn in | humidity % | barometer mb |
| 20260504040028 | 56 | 238 | 0.0 | 3.0 | 0.00 | 0.00 | 0.00 | 79 | 1005.0 |
| 20260504034528 | 56 | 238 | 0.0 | 4.0 | 0.00 | 0.00 | 0.00 | 78 | 1005.0 |
| 20260504033025 | 57 | 238 | 0.0 | 7.0 | 0.00 | 0.00 | 0.00 | 77 | 1004.7 |
| 20260504031526 | 58 | 252 | 0.0 | 3.0 | 0.00 | 0.00 | 0.00 | 77 | 1004.6 |
| 20260504030022 | 58 | 255 | 0.0 | 4.0 | 0.00 | 0.00 | 0.00 | 77 | 1004.4 |
| 20260504024522 | 58 | 254 | 0.0 | 5.0 | 0.00 | 0.00 | 0.00 | 76 | 1004.1 |
| 20260504023021 | 58 | 252 | 0.0 | 5.0 | 0.00 | 0.00 | 0.00 | 75 | 1004.0 |
| 20260504021520 | 59 | 234 | 0.0 | 4.0 | 0.00 | 0.00 | 0.00 | 74 | 1003.9 |
| 20260504020030 | 60 | 261 | 1.0 | 7.0 | 0.00 | 0.00 | 0.00 | 72 | 1003.8 |
| 20260504014519 | 60 | 241 | 1.0 | 8.0 | 0.00 | 0.00 | 0.00 | 71 | 1003.7 |
| 20260504013022 | 61 | 260 | 1.0 | 6.0 | 0.00 | 0.00 | 0.00 | 70 | 1003.5 |
| 20260504011518 | 62 | 224 | 0.0 | 5.0 | 0.00 | 0.00 | 0.00 | 70 | 1003.5 |
| 20260504010017 | 64 | 240 | 0.0 | 5.0 | 0.00 | 0.00 | 0.00 | 68 | 1003.4 |
| 20260504004533 | 65 | 274 | 0.0 | 7.0 | 0.00 | 0.00 | 0.00 | 66 | 1003.2 |
| 20260504003017 | 66 | 196 | 0.0 | 3.0 | 0.00 | 0.00 | 0.00 | 65 | 1003.2 |
| 20260504001529 | 66 | 258 | 1.0 | 7.0 | 0.00 | 0.00 | 0.00 | 64 | 1003.2 |
| 20260504000014 | 66 | 169 | 0.0 | 5.0 | 0.00 | 0.00 | 0.00 | 63 | 1003.0 |
| 20260503234517 | 67 | 229 | 0.0 | 4.0 | 0.00 | 0.00 | 0.00 | 63 | 1002.9 |
| 20260503233013 | 68 | 246 | 0.0 | 8.0 | 0.00 | 0.00 | 0.00 | 62 | 1002.9 |
| 20260503231510 | 68 | 281 | 0.0 | 5.0 | 0.00 | 0.00 | 0.00 | 64 | 1003.0 |
| 20260503230009 | 67 | 151 | 0.0 | 5.0 | 0.00 | 0.00 | 0.00 | 63 | 1003.0 |
| 20260503224507 | 67 | 262 | 0.0 | 7.0 | 0.00 | 0.00 | 0.00 | 63 | 1003.1 |
| 20260503223007 | 67 | 262 | 0.0 | 7.0 | 0.00 | 0.00 | 0.00 | 64 | 1003.3 |
| 20260503221600 | 66 | 313 | 1.0 | 9.0 | 0.00 | 0.00 | 0.00 | 63 | 1003.5 |
| 20260503220057 | 67 | 98 | 0.0 | 5.0 | 0.00 | 0.00 | 0.00 | 64 | 1003.7 |
| 20260503214558 | 66 | 242 | 1.0 | 5.0 | 0.00 | 0.00 | 0.00 | 64 | 1003.7 |
| 20260503213051 | 65 | 240 | 0.0 | 11.0 | 0.00 | 0.00 | 0.00 | 66 | 1003.7 |
| 20260503211548 | 66 | 246 | 0.0 | 4.0 | 0.00 | 0.00 | 0.00 | 65 | 1003.7 |
| 20260503210045 | 65 | 63 | 0.0 | 5.0 | 0.00 | 0.00 | 0.00 | 66 | 1003.7 |
| 20260503204544 | 65 | 232 | 1.0 | 6.0 | 0.00 | 0.00 | 0.00 | 68 | 1003.8 |
| 20260503203037 | 64 | 267 | 1.0 | 7.0 | 0.00 | 0.00 | 0.00 | 69 | 1003.7 |
| 20260503201537 | 64 | 350 | 1.0 | 4.0 | 0.00 | 0.00 | 0.00 | 69 | 1004.0 |
| 20260503200030 | 62 | 233 | 1.0 | 5.0 | 0.00 | 0.00 | 0.00 | 71 | 1003.9 |
| 20260503194526 | 63 | 226 | 0.0 | 8.0 | 0.00 | 0.00 | 0.00 | 70 | 1003.9 |
| 20260503193022 | 62 | 248 | 2.0 | 5.0 | 0.00 | 0.00 | 0.00 | 71 | 1003.8 |
| 20260503191520 | 62 | 223 | 1.0 | 5.0 | 0.00 | 0.00 | 0.00 | 72 | 1003.9 |
| 20260503190026 | 62 | 233 | 1.0 | 6.0 | 0.00 | 0.00 | 0.00 | 72 | 1004.1 |
| 20260503184518 | 61 | 166 | 0.0 | 5.0 | 0.00 | 0.00 | 0.00 | 76 | 1004.2 |
| 20260503183013 | 61 | 271 | 0.0 | 3.0 | 0.00 | 0.00 | 0.00 | 78 | 1004.2 |
| 20260503181523 | 60 | 140 | 0.0 | 3.0 | 0.00 | 0.00 | 0.00 | 78 | 1004.2 |
| 20260503180016 | 60 | 165 | 0.0 | 5.0 | 0.00 | 0.00 | 0.00 | 80 | 1004.3 |
| 20260503174505 | 58 | 216 | 1.0 | 4.0 | 0.00 | 0.00 | 0.00 | 81 | 1004.1 |
| 20260503173003 | 57 | 171 | 0.0 | 2.0 | 0.00 | 0.00 | 0.00 | 83 | 1004.0 |
| 20260503171600 | 56 | 246 | 0.0 | 3.0 | 0.00 | 0.00 | 0.00 | 85 | 1003.8 |
| 20260503170110 | 55 | 229 | 0.0 | 3.0 | 0.00 | 0.00 | 0.00 | 85 | 1003.9 |
| 20260503110125 | 52 | 229 | 0.0 | 0.0 | 0.00 | 0.00 | 0.00 | 92 | 1001.2 |
| 20260503081510 | 54 | 229 | 0.0 | 0.0 | 0.00 | 0.00 | 0.00 | 90 | 1001.9 |
| 20260503071605 | 55 | 229 | 0.0 | 0.0 | 0.00 | 0.00 | 0.00 | 89 | 1002.2 |
| 20260503054558 | 56 | 229 | 0.0 | 0.0 | 0.00 | 0.00 | 0.00 | 87 | 1002.7 |
| 20260503053054 | 57 | 229 | 0.0 | 0.0 | 0.00 | 0.00 | 0.00 | 86 | 1002.6 |
| 20260503051553 | 57 | 229 | 0.0 | 0.0 | 0.00 | 0.00 | 0.00 | 86 | 1002.7 |
| 20260503050053 | 58 | 229 | 0.0 | 0.0 | 0.00 | 0.00 | 0.00 | 86 | 1002.7 |
| 20260503044609 | 58 | 229 | 0.0 | 0.0 | 0.00 | 0.00 | 0.00 | 85 | 1002.5 |
| 20260503043057 | 59 | 229 | 0.0 | 0.0 | 0.00 | 0.00 | 0.00 | 84 | 1002.5 |
| 20260503041609 | 60 | 229 | 0.0 | 0.0 | 0.00 | 0.00 | 0.00 | 84 | 1002.3 |